Weather History for Bentonville, AR

Change the Weather History Date:

Monday, March 11, 2013

  Actual Average Record
Temperature  
Mean Temperature 36 °F -  
Max Temperature 44 °F 57 °F 87 °F (1967)
Min Temperature 28 °F 35 °F -4 °F (1948)
Degree Days  
Heating Degree Days 29    
Moisture  
Dew Point 23 °F    
Average Humidity 65    
Maximum Humidity 86    
Minimum Humidity 39    
Precipitation  
Precipitation 0.00 in - - ()
Sea Level Pressure  
Sea Level Pressure 29.94 in    
Wind  
Wind Speed 12 mph (WNW)    
Max Wind Speed 18 mph    
Max Gust Speed 23 mph    
Visibility 10 miles    
Events      
Averages and records for this station are not official NWS values.
T = Trace of Precipitation, MM = Missing Value Source: NWS Daily Summary

Daily Weather History Graph

Daily Weather History Graph

Search for Another Location

Airport:

Trip Planner

Search our weather history database for the weather conditions in past years. The results will help you decide how hot, cold, wet, or windy it might be!

Date:

Astronomy

Mar. 11, 2013 Rise Set
Actual Time 7:33 AM CDT 7:21 PM CDT
Civil Twilight 7:07 AM CDT 7:46 PM CDT
Nautical Twilight 6:37 AM CDT 8:16 PM CDT
Astronomical Twilight 6:07 AM CDT 8:46 PM CDT
Moon 7:08 AM CDT (3/11) 7:32 PM CDT (3/11)
Length of Visible Light 12h 39m
Length of Day
11h 47m
Waning Crescent, 0% of the Moon is Illuminated
Mar 11
Waning Crescent
Mar 11
New
Mar 19
First Quarter
Mar 27
Full
Apr 2
Last Quarter

Hourly Weather History & Observations

Time (CDT) Temp. Windchill Dew Point Humidity Pressure Visibility Wind Dir Wind Speed Gust Speed Precip Events Conditions
12:15 AM 30.2 °F 20.2 °F 24.8 °F 80% 29.93 in 7.0 mi WNW 12.7 mph 20.7 mph N/A   Overcast
12:35 AM 30.2 °F 19.8 °F 24.8 °F 80% 29.92 in 8.0 mi WNW 13.8 mph 20.7 mph N/A   Overcast
12:55 AM 30.2 °F 19.8 °F 24.8 °F 80% 29.92 in 9.0 mi WNW 13.8 mph 19.6 mph N/A   Overcast
1:15 AM 30.2 °F 19.8 °F 24.8 °F 80% 29.92 in 5.0 mi WNW 13.8 mph 17.3 mph N/A   Overcast
1:55 AM 28.4 °F 17.5 °F 24.8 °F 86% 29.90 in 9.0 mi WNW 13.8 mph - N/A   Overcast
2:15 AM 28.4 °F 19.1 °F 24.8 °F 86% 29.90 in 7.0 mi NW 10.4 mph - N/A   Overcast
2:35 AM 28.4 °F 16.6 °F 24.8 °F 86% 29.89 in 10.0 mi WNW 16.1 mph 19.6 mph N/A   Overcast
2:55 AM 28.4 °F 16.6 °F 24.8 °F 86% 29.90 in 10.0 mi West 16.1 mph 19.6 mph N/A   Overcast
3:15 AM 28.4 °F 17.0 °F 23.0 °F 80% 29.92 in 10.0 mi West 15.0 mph 20.7 mph N/A   Overcast
3:55 AM 28.4 °F 18.0 °F 23.0 °F 80% 29.92 in 10.0 mi West 12.7 mph - N/A   Overcast
4:15 AM 28.4 °F 19.1 °F 21.2 °F 74% 29.91 in 10.0 mi West 10.4 mph 19.6 mph N/A   Overcast
4:35 AM 28.4 °F 17.0 °F 21.2 °F 74% 29.91 in 10.0 mi WNW 15.0 mph 18.4 mph N/A   Overcast
4:55 AM 28.4 °F 18.5 °F 21.2 °F 74% 29.91 in 10.0 mi West 11.5 mph 18.4 mph N/A   Overcast
5:15 AM 28.4 °F 19.1 °F 21.2 °F 74% 29.91 in 10.0 mi WNW 10.4 mph - N/A   Overcast
5:35 AM 28.4 °F 18.5 °F 21.2 °F 74% 29.92 in 10.0 mi WNW 11.5 mph 18.4 mph N/A   Overcast
5:55 AM 28.4 °F 17.5 °F 23.0 °F 80% 29.92 in 10.0 mi WNW 13.8 mph 18.4 mph N/A   Overcast
6:15 AM 28.4 °F 18.0 °F 23.0 °F 80% 29.91 in 10.0 mi WNW 12.7 mph 18.4 mph N/A   Overcast
6:35 AM 28.4 °F 19.1 °F 21.2 °F 74% 29.90 in 10.0 mi WNW 10.4 mph 19.6 mph N/A   Overcast
6:55 AM 28.4 °F 18.0 °F 21.2 °F 74% 29.90 in 10.0 mi WNW 12.7 mph - N/A   Mostly Cloudy
7:15 AM 28.4 °F 18.5 °F 21.2 °F 74% 29.91 in 10.0 mi West 11.5 mph 18.4 mph N/A   Clear
7:35 AM 28.4 °F 19.1 °F 21.2 °F 74% 29.91 in 10.0 mi WNW 10.4 mph - N/A   Mostly Cloudy
7:55 AM 28.4 °F 18.5 °F 21.2 °F 74% 29.92 in 10.0 mi WNW 11.5 mph - N/A   Mostly Cloudy
8:15 AM 28.4 °F 18.0 °F 21.2 °F 74% 29.92 in 10.0 mi WNW 12.7 mph - N/A   Overcast
8:35 AM 28.4 °F 18.5 °F 21.2 °F 74% 29.93 in 10.0 mi WNW 11.5 mph 16.1 mph N/A   Overcast
8:55 AM 28.4 °F 17.5 °F 21.2 °F 74% 29.93 in 10.0 mi WNW 13.8 mph - N/A   Overcast
9:15 AM 28.4 °F 16.2 °F 21.2 °F 74% 29.94 in 10.0 mi WNW 17.3 mph 21.9 mph N/A   Overcast
9:35 AM 28.4 °F 18.0 °F 21.2 °F 74% 29.95 in 10.0 mi WNW 12.7 mph 23.0 mph N/A   Overcast
9:55 AM 30.2 °F 20.2 °F 21.2 °F 69% 29.96 in 10.0 mi WNW 12.7 mph - N/A   Overcast
10:15 AM 30.2 °F 20.2 °F 21.2 °F 69% 29.96 in 10.0 mi WNW 12.7 mph 17.3 mph N/A   Overcast
10:35 AM 30.2 °F 20.8 °F 21.2 °F 69% 29.96 in 10.0 mi WNW 11.5 mph - N/A   Overcast
10:55 AM 30.2 °F 20.8 °F 23.0 °F 75% 29.96 in 10.0 mi WNW 11.5 mph - N/A   Overcast
11:15 AM 30.2 °F 20.2 °F 24.8 °F 80% 29.97 in 10.0 mi WNW 12.7 mph - N/A   Overcast
11:55 AM 33.8 °F 25.3 °F 24.8 °F 70% 29.96 in 10.0 mi West 11.5 mph - N/A   Mostly Cloudy
12:15 PM 33.8 °F 25.8 °F 24.8 °F 70% 29.96 in 10.0 mi WNW 10.4 mph - N/A   Mostly Cloudy
12:35 PM 35.6 °F 27.1 °F 26.6 °F 70% 29.96 in 10.0 mi WNW 12.7 mph - N/A   Mostly Cloudy
12:55 PM 35.6 °F 26.2 °F 24.8 °F 65% 29.97 in 10.0 mi WNW 15.0 mph 20.7 mph N/A   Mostly Cloudy
1:15 PM 37.4 °F 28.9 °F 26.6 °F 65% 29.96 in 10.0 mi West 13.8 mph - N/A   Mostly Cloudy
1:35 PM 37.4 °F 28.9 °F 26.6 °F 65% 29.95 in 10.0 mi West 13.8 mph - N/A   Scattered Clouds
1:55 PM 37.4 °F 29.8 °F 26.6 °F 65% 29.94 in 10.0 mi NW 11.5 mph - N/A   Partly Cloudy
2:15 PM 39.2 °F 31.6 °F 26.6 °F 61% 29.94 in 10.0 mi WNW 12.7 mph - N/A   Partly Cloudy
2:35 PM 39.2 °F 31.2 °F 24.8 °F 56% 29.94 in 10.0 mi WNW 13.8 mph 21.9 mph N/A   Partly Cloudy
2:55 PM 41.0 °F 34.7 °F 26.6 °F 57% 29.93 in 10.0 mi NW 10.4 mph - N/A   Clear
3:15 PM 41.0 °F 33.1 °F 24.8 °F 53% 29.93 in 10.0 mi WNW 15.0 mph 19.6 mph N/A   Clear
3:35 PM 42.8 °F 37.0 °F 26.6 °F 53% 29.94 in 10.0 mi West 10.4 mph 20.7 mph N/A   Clear
3:55 PM 42.8 °F 34.5 °F 24.8 °F 49% 29.94 in 10.0 mi WNW 18.4 mph 23.0 mph N/A   Clear
4:15 PM 42.8 °F 35.4 °F 24.8 °F 49% 29.94 in 10.0 mi West 15.0 mph 18.4 mph N/A   Clear
4:35 PM 42.8 °F 36.6 °F 23.0 °F 46% 29.94 in 10.0 mi West 11.5 mph 20.7 mph N/A   Clear
4:55 PM 44.6 °F 38.4 °F 21.2 °F 39% 29.95 in 10.0 mi West 12.7 mph 23.0 mph N/A   Clear
5:15 PM 44.6 °F 37.8 °F 23.0 °F 43% 29.94 in 10.0 mi WNW 15.0 mph - N/A   Clear
5:35 PM 44.6 °F 38.4 °F 21.2 °F 39% 29.94 in 10.0 mi West 12.7 mph 18.4 mph N/A   Clear
5:55 PM 44.6 °F 38.8 °F 21.2 °F 39% 29.95 in 10.0 mi West 11.5 mph - N/A   Clear
6:15 PM 44.6 °F 40.7 °F 21.2 °F 39% 29.94 in 10.0 mi West 6.9 mph - N/A   Clear
6:35 PM 42.8 °F 37.5 °F 21.2 °F 42% 29.94 in 10.0 mi WNW 9.2 mph - N/A   Clear
6:55 PM 42.8 °F 38.6 °F 19.4 °F 39% 29.95 in 10.0 mi WNW 6.9 mph - N/A   Clear
7:15 PM 42.8 °F 38.6 °F 21.2 °F 42% 29.95 in 10.0 mi WNW 6.9 mph - N/A   Clear
7:35 PM 41.0 °F 39.0 °F 21.2 °F 45% 29.96 in 10.0 mi WNW 3.5 mph - N/A   Clear
7:55 PM 39.2 °F 35.9 °F 21.2 °F 49% 29.96 in 10.0 mi West 4.6 mph - N/A   Clear
8:15 PM 39.2 °F - 21.2 °F 49% 29.97 in 10.0 mi Calm Calm - N/A   Clear
8:35 PM 37.4 °F - 23.0 °F 56% 29.97 in 10.0 mi Calm Calm - N/A   Clear
8:55 PM 37.4 °F - 21.2 °F 52% 29.97 in 10.0 mi Calm Calm - N/A   Clear
9:15 PM 37.4 °F - 21.2 °F 52% 29.98 in 10.0 mi Calm Calm - N/A   Clear
9:35 PM 35.6 °F - 21.2 °F 56% 29.99 in 10.0 mi Calm Calm - N/A   Clear
9:55 PM 35.6 °F 32.8 °F 23.0 °F 60% 30.00 in 10.0 mi West 3.5 mph - N/A   Clear
10:15 PM 35.6 °F - 21.2 °F 56% 30.01 in 10.0 mi Calm Calm - N/A   Clear
10:35 PM 33.8 °F - 21.2 °F 60% 30.00 in 10.0 mi Calm Calm - N/A   Clear
10:55 PM 33.8 °F - 21.2 °F 60% 30.01 in 10.0 mi Calm Calm - N/A   Clear
11:15 PM 33.8 °F - 21.2 °F 60% 30.01 in 10.0 mi Calm Calm - N/A   Clear
11:35 PM 30.2 °F - 21.2 °F 69% 30.01 in 10.0 mi Calm Calm - N/A   Clear
11:55 PM 32.0 °F 27.5 °F 19.4 °F 60% 30.01 in 10.0 mi SSW 4.6 mph - N/A   Clear